Le Mars, IA

8:14 PM CST on November 14, 2019 (GMT -0600)
Le Mars Municipal

Weather History for KLRJ - September, 2019

Change the Weather History Date:

Monday, September 30, 2019

  Actual Average Record
Temperature  
Mean Temperature 76 °F -  
Max Temperature 89 °F 73 °F 89 °F (1976)
Min Temperature 62 °F 44 °F 27 °F (1984)
Cooling Degree Days 10    
Growing Degree Days 26 (Base 50)    
Moisture  
Dew Point 70 °F    
Average Humidity 83    
Maximum Humidity 100    
Minimum Humidity 49    
Precipitation  
Precipitation 0.01 in - - ()
Sea Level Pressure  
Sea Level Pressure 29.75 in    
Wind  
Wind Speed 19 mph (SSW)    
Max Wind Speed 28 mph    
Max Gust Speed 37 mph    
Visibility 10 miles    
Events Rain    
Averages and records for this station are not official NWS values.
T = Trace of Precipitation, MM = Missing Value Source: NWS Daily Summary

Daily Weather History Graph

Daily Weather History Graph

Search for Another Location

Airport or City:

Astronomy

Sep. 30, 2019 Rise Set
Actual Time 7:20 AM CDT 7:08 PM CDT
Civil Twilight 6:52 AM CDT 7:36 PM CDT
Nautical Twilight 6:19 AM CDT 8:09 PM CDT
Astronomical Twilight 5:46 AM CDT 8:42 PM CDT
Moon 9:28 AM CDT (9/30) 8:41 PM CDT (9/30)
Length of Visible Light 12h 43m
Length of Day
11h 47m
Waxing Crescent, 6% of the Moon is Illuminated
Sep 30
Waxing Crescent
Oct 5
First Quarter
Oct 13
Full
Oct 21
Last Quarter
Oct 27
New

Hourly Weather History & Observations

Time (CDT) Temp. Heat Index Dew Point Humidity Pressure Visibility Wind Dir Wind Speed Gust Speed Precip Events Conditions
12:15 AM 75.2 °F - 73.4 °F 94% 29.79 in 10.0 mi SSE 18.4 mph 26.5 mph N/A   Overcast
12:35 AM 75.2 °F - 73.4 °F 94% 29.78 in 10.0 mi SSE 19.6 mph 32.2 mph N/A   Overcast
12:55 AM 75.2 °F - 73.4 °F 94% 29.76 in 10.0 mi SSE 27.6 mph 35.7 mph N/A   Mostly Cloudy
1:15 AM 75.2 °F - 73.4 °F 94% 29.76 in 10.0 mi SSE 24.2 mph 31.1 mph N/A   Mostly Cloudy
1:35 AM 75.2 °F - 73.4 °F 94% 29.76 in 10.0 mi South 20.7 mph 31.1 mph N/A   Mostly Cloudy
1:55 AM 75.2 °F - 75.2 °F 100% 29.76 in 10.0 mi South 23.0 mph 28.8 mph 0.01 in   Overcast
2:15 AM 75.2 °F - 75.2 °F 100% 29.75 in 10.0 mi South 23.0 mph 31.1 mph N/A   Overcast
2:35 AM 75.2 °F - 75.2 °F 100% 29.75 in 10.0 mi South 21.9 mph 29.9 mph N/A   Overcast
2:55 AM 75.2 °F - 75.2 °F 100% 29.74 in 10.0 mi South 25.3 mph 31.1 mph N/A   Overcast
3:15 AM 75.2 °F - 75.2 °F 100% 29.75 in 10.0 mi South 20.7 mph 29.9 mph N/A   Mostly Cloudy
3:35 AM 75.2 °F - 75.2 °F 100% 29.75 in 10.0 mi South 16.1 mph 27.6 mph N/A   Mostly Cloudy
3:55 AM 75.2 °F - 73.4 °F 94% 29.74 in 10.0 mi South 21.9 mph 28.8 mph N/A   Mostly Cloudy
4:15 AM 75.2 °F - 73.4 °F 94% 29.73 in 10.0 mi South 18.4 mph 31.1 mph N/A   Scattered Clouds
4:35 AM 73.4 °F - 73.4 °F 100% 29.73 in 10.0 mi South 20.7 mph 27.6 mph N/A   Scattered Clouds
4:55 AM 73.4 °F - 73.4 °F 100% 29.73 in 10.0 mi South 19.6 mph 26.5 mph N/A   Mostly Cloudy
5:15 AM 73.4 °F - 73.4 °F 100% 29.73 in 10.0 mi South 19.6 mph 26.5 mph N/A   Scattered Clouds
5:35 AM 73.4 °F - 73.4 °F 100% 29.72 in 10.0 mi South 16.1 mph 26.5 mph N/A   Scattered Clouds
5:55 AM 73.4 °F - 73.4 °F 100% 29.72 in 10.0 mi South 20.7 mph - N/A   Partly Cloudy
6:15 AM 73.4 °F - 73.4 °F 100% 29.71 in 10.0 mi South 18.4 mph 27.6 mph N/A   Clear
6:35 AM 73.4 °F - 73.4 °F 100% 29.71 in 10.0 mi South 19.6 mph - N/A   Clear
6:55 AM 75.2 °F - 73.4 °F 94% 29.71 in 10.0 mi South 19.6 mph 26.5 mph N/A   Clear
7:15 AM 75.2 °F - 73.4 °F 94% 29.71 in 10.0 mi South 20.7 mph 26.5 mph N/A   Scattered Clouds
7:35 AM 73.4 °F - 73.4 °F 100% 29.71 in 10.0 mi South 19.6 mph 31.1 mph N/A   Mostly Cloudy
7:55 AM 75.2 °F - 73.4 °F 94% 29.71 in 10.0 mi South 20.7 mph 32.2 mph N/A   Partly Cloudy
8:15 AM 75.2 °F - 73.4 °F 94% 29.71 in 10.0 mi South 25.3 mph 32.2 mph N/A   Partly Cloudy
8:35 AM 75.2 °F - 73.4 °F 94% 29.71 in 10.0 mi South 18.4 mph 26.5 mph N/A   Scattered Clouds
8:55 AM 75.2 °F - 73.4 °F 94% 29.71 in 10.0 mi South 21.9 mph 31.1 mph N/A   Mostly Cloudy
9:15 AM 77.0 °F - 73.4 °F 89% 29.71 in 10.0 mi South 19.6 mph 28.8 mph N/A   Scattered Clouds
9:35 AM 78.8 °F - 73.4 °F 83% 29.73 in 10.0 mi SSW 17.3 mph 25.3 mph N/A   Mostly Cloudy
9:55 AM 78.8 °F - 73.4 °F 83% 29.72 in 10.0 mi South 20.7 mph 32.2 mph N/A   Mostly Cloudy
10:15 AM 80.6 °F 85.4 °F 73.4 °F 79% 29.72 in 10.0 mi SSW 17.3 mph 28.8 mph N/A   Partly Cloudy
10:35 AM 80.6 °F 85.4 °F 73.4 °F 79% 29.71 in 10.0 mi South 23.0 mph 32.2 mph N/A   Partly Cloudy
10:55 AM 80.6 °F 84.6 °F 71.6 °F 74% 29.71 in 10.0 mi SSW 25.3 mph 35.7 mph N/A   Partly Cloudy
11:15 AM 82.4 °F 87.2 °F 71.6 °F 70% 29.71 in 10.0 mi SSW 24.2 mph 36.8 mph N/A   Partly Cloudy
11:35 AM 82.4 °F 87.2 °F 71.6 °F 70% 29.71 in 10.0 mi South 20.7 mph 34.5 mph N/A   Clear
11:55 AM 84.2 °F 90.9 °F 73.4 °F 70% 29.71 in 10.0 mi South 20.7 mph 31.1 mph N/A   Scattered Clouds
12:15 PM 84.2 °F 89.6 °F 71.6 °F 66% 29.71 in 10.0 mi SSW 20.7 mph 28.8 mph N/A   Scattered Clouds
12:35 PM 84.2 °F 89.6 °F 71.6 °F 66% 29.71 in 10.0 mi SSW 23.0 mph 29.9 mph N/A   Partly Cloudy
12:55 PM 86.0 °F 91.8 °F 71.6 °F 62% 29.71 in 10.0 mi South 19.6 mph 25.3 mph N/A   Partly Cloudy
1:15 PM 86.0 °F 91.8 °F 71.6 °F 62% 29.71 in 10.0 mi South 20.7 mph 29.9 mph N/A   Partly Cloudy
1:55 PM 87.8 °F 93.8 °F 71.6 °F 58% 29.69 in 10.0 mi South 19.6 mph 31.1 mph N/A   Clear
2:15 PM 87.8 °F 93.8 °F 71.6 °F 58% 29.70 in 10.0 mi SSW 19.6 mph 28.8 mph N/A   Scattered Clouds
2:35 PM 87.8 °F 93.8 °F 71.6 °F 58% 29.70 in 10.0 mi SSW 19.6 mph 27.6 mph N/A   Mostly Cloudy
2:55 PM 87.8 °F 92.6 °F 69.8 °F 55% 29.70 in 10.0 mi SSW 17.3 mph 27.6 mph N/A   Mostly Cloudy
3:15 PM 87.8 °F 92.6 °F 69.8 °F 55% 29.70 in 10.0 mi SSW 12.7 mph 27.6 mph N/A   Scattered Clouds
3:35 PM 87.8 °F 92.6 °F 69.8 °F 55% 29.70 in 10.0 mi SSW 15.0 mph 24.2 mph N/A   Scattered Clouds
3:55 PM 89.6 °F 94.7 °F 69.8 °F 52% 29.70 in 10.0 mi SSW 12.7 mph 25.3 mph N/A   Partly Cloudy
4:15 PM 89.6 °F 93.4 °F 68.0 °F 49% 29.70 in 10.0 mi SW 12.7 mph 24.2 mph N/A   Scattered Clouds
4:35 PM 89.6 °F 93.4 °F 68.0 °F 49% 29.70 in 10.0 mi SW 12.7 mph 27.6 mph N/A   Partly Cloudy
4:55 PM 89.6 °F 93.4 °F 68.0 °F 49% 29.70 in 10.0 mi SSW 16.1 mph - N/A   Scattered Clouds
5:15 PM 87.8 °F 91.4 °F 68.0 °F 52% 29.71 in 10.0 mi SSW 8.1 mph 13.8 mph N/A   Scattered Clouds
5:35 PM 82.4 °F 86.3 °F 69.8 °F 66% 29.73 in 10.0 mi NW 17.3 mph 24.2 mph N/A   Mostly Cloudy
5:55 PM 80.6 °F 83.9 °F 69.8 °F 70% 29.75 in 10.0 mi NW 16.1 mph 23.0 mph N/A   Partly Cloudy
6:15 PM 77.0 °F - 68.0 °F 74% 29.76 in 10.0 mi NW 15.0 mph - N/A   Clear
6:35 PM 75.2 °F - 66.2 °F 73% 29.78 in 10.0 mi NW 9.2 mph 18.4 mph N/A   Scattered Clouds
6:55 PM 75.2 °F - 66.2 °F 73% 29.79 in 10.0 mi NW 6.9 mph 13.8 mph N/A   Overcast
7:15 PM 73.4 °F - 66.2 °F 78% 29.80 in 10.0 mi NW 13.8 mph 19.6 mph N/A   Mostly Cloudy
7:35 PM 71.6 °F - 64.4 °F 78% 29.82 in 10.0 mi NNW 12.7 mph - N/A   Partly Cloudy
7:55 PM 69.8 °F - 64.4 °F 83% 29.83 in 10.0 mi NW 10.4 mph - N/A   Clear
8:15 PM 68.0 °F - 64.4 °F 88% 29.84 in 10.0 mi NW 8.1 mph 13.8 mph N/A   Clear
8:35 PM 68.0 °F - 64.4 °F 88% 29.85 in 10.0 mi NNW 5.8 mph - N/A   Partly Cloudy
8:55 PM 66.2 °F - 64.4 °F 94% 29.84 in 10.0 mi North 4.6 mph - N/A   Partly Cloudy
9:15 PM 66.2 °F - 64.4 °F 94% 29.85 in 10.0 mi Variable 3.5 mph - N/A   Mostly Cloudy
9:35 PM 66.2 °F - 62.6 °F 88% 29.87 in 10.0 mi NW 6.9 mph - N/A   Overcast
9:55 PM 64.4 °F - 62.6 °F 94% 29.86 in 6.0 mi NNW 11.5 mph - N/A Rain Light Rain
10:15 PM 64.4 °F - 62.6 °F 94% 29.87 in 10.0 mi Variable 6.9 mph 15.0 mph N/A   Overcast
10:35 PM 64.4 °F - 64.4 °F 100% 29.88 in 10.0 mi NNW 6.9 mph - N/A   Overcast
10:55 PM 62.6 °F - 62.6 °F 100% 29.87 in 10.0 mi North 6.9 mph - N/A   Overcast
11:15 PM 62.6 °F - 62.6 °F 100% 29.88 in 10.0 mi NNW 8.1 mph - N/A   Overcast
11:35 PM 62.6 °F - 62.6 °F 100% 29.87 in 10.0 mi North 11.5 mph - N/A   Overcast
11:55 PM 62.6 °F - 62.6 °F 100% 29.90 in 10.0 mi NNW 5.8 mph 15.0 mph N/A   Mostly Cloudy